This is the latest recevied weather packets stored in our database for station/object KE6YLF. If no packets are shown the sender has not sent any weather packets the latest 10 day(s).
| Time | Temp. | Humidity | Pressure | Rain* | Wind** | Luminosity | Snow |
|---|---|---|---|---|---|---|---|
| 1778362772 | 38.33° C | 14% | 1072.7 hPa | 0 mm | - | - | - |
| 1778362468 | 38.89° C | 14% | 1072.9 hPa | 0 mm | - | - | - |
| 1778362166 | 38.89° C | 14% | 1072.7 hPa | 0 mm | - | - | - |
| 1778361863 | 37.78° C | 14% | 1073.1 hPa | 0 mm | - | - | - |
| 1778361559 | 38.33° C | 14% | 1073.1 hPa | 0 mm | - | - | - |
| 1778361255 | 38.33° C | 14% | 1073 hPa | 0 mm | - | - | - |
| 1778360951 | 38.89° C | 14% | 1073.1 hPa | 0 mm | - | - | - |
| 1778360649 | 38.33° C | 14% | 1073.1 hPa | 0 mm | - | - | - |
| 1778360344 | 38.33° C | 14% | 1073.4 hPa | 0 mm | - | - | - |
| 1778360043 | 39.44° C | 13% | 1073.4 hPa | 0 mm | - | - | - |
| 1778359740 | 38.89° C | 14% | 1073.3 hPa | 0 mm | - | - | - |
| 1778359436 | 37.78° C | 14% | 1073.4 hPa | 0 mm | - | - | - |
| 1778359133 | 37.78° C | 14% | 1073.5 hPa | 0 mm | - | - | - |
| 1778358829 | 38.33° C | 14% | 1073.6 hPa | 0 mm | - | - | - |
| 1778358527 | 38.89° C | 14% | 1073.6 hPa | 0 mm | - | - | - |
| 1778358222 | 39.44° C | 14% | 1073.8 hPa | 0 mm | - | - | - |
| 1778357917 | 37.78° C | 15% | 1073.6 hPa | 0 mm | - | - | - |
| 1778357613 | 37.22° C | 15% | 1073.9 hPa | 0 mm | - | - | - |
| 1778357310 | 37.78° C | 15% | 1073.7 hPa | 0 mm | - | - | - |
| 1778357005 | 37.22° C | 15% | 1074.1 hPa | 0 mm | - | - | - |
| 1778356702 | 37.78° C | 14% | 1074.2 hPa | 0 mm | - | - | - |
| 1778356397 | 37.78° C | 14% | 1074 hPa | 0 mm | - | - | - |
| 1778356096 | 37.78° C | 14% | 1074 hPa | 0 mm | - | - | - |
| 1778355792 | 37.22° C | 14% | 1074.3 hPa | 0 mm | - | - | - |
| 1778355489 | 36.67° C | 15% | 1074.2 hPa | 0 mm | - | - | - |
* Rain latest hour (hover to see other rain measurements)
** Current wind speed in m/s (hover to see current wind gust speed)